Snowfall_Accumulation
0.0 0.0 0.0 0.0 0.0 0.0 0.0 0.0 0.0 0.0 0.0 0.0 0.0 0.0 0.0 0.0 0.0 0.0 0.0 0.0 0.0 0.0 0.0 0.0 0.0 0.0 0.0 0.0 0.0 0.0 0.0 0.0 0.0 0.0 0.0 0.0 0.0 0.0 0.0 0.0 0.0 0.0 0.0 0.0 0.0
0.0 0.0 0.0 0.0 0.0 0.0 0.0 0.0 0.0 0.0 0.0 0.0 0.0 0.0 0.0 0.0 0.0 0.0 0.0 0.0 0.0 0.0 0.0 0.0 0.0 0.0 0.0 0.0 0.0 0.0 0.0 0.0 0.0 0.0 0.0 0.0 0.0 0.0 0.0 0.0 0.0 0.0 0.0 0.0 0.0
0.0 0.0 0.0 0.0 0.0 0.0 0.0 0.0 0.0 0.0 0.0 0.0 0.0 0.0 0.0 0.0 0.0 0.0 0.0 0.0 0.0 0.0 0.0 0.0 0.0 0.0 0.0 0.0 0.0 0.0 0.0 0.0 0.0 0.0 0.0 0.0 0.0 0.0 0.0 0.0 0.0 0.0 0.0 0.0 0.0
0.0 0.0 0.0 0.0 0.0 0.0 0.0 0.0 0.0 0.0 0.0 0.0 0.0 0.0 0.0 0.0 1.1 0.0 0.0 0.0 0.0 0.0 0.0 0.0 0.0 0.0 0.0 0.0 0.0 0.0 0.0 0.0 0.0 0.0 0.0 0.0 0.0 0.0 0.0 0.0 0.0 0.0 0.0 0.0 0.0
0.0 0.0 0.0 0.0 0.0 0.0 0.0 0.0 0.0 0.0 0.0 0.0 0.0 0.0 0.0 0.0 0.0 0.0 0.0 0.0 0.0 0.0 0.0 0.0 0.0 0.0 0.0 0.0 0.0 0.0 0.0 0.0 0.0 0.0 0.0 0.0 0.0 0.0 0.0 0.0 0.0 0.0 0.0 0.0 0.0
0.0 0.0 0.0 0.0 0.0 0.0 0.0 0.0 0.0 0.0 0.0 0.0 0.0 0.0 0.0 0.0 0.0 0.0 0.0 0.0 0.0 0.0 0.0 0.0 0.0 0.0 0.0 0.0 0.0 0.0 0.0 0.0 0.0 0.0 0.0 0.0 0.0 0.0 0.0 0.0 0.0 0.0 0.0 0.0 0.0
0.0 0.0 0.0 0.0 0.0 0.0 0.0 0.0 0.0 0.0 0.0 0.0 0.0 0.0 0.0 0.0 0.0 0.0 0.0 0.0 0.0 0.0 0.0 0.0 0.0 0.0 0.0 0.0 0.0 0.0 0.0 0.0 0.0 0.0 0.0 0.0 0.0 0.0 0.0 0.0 0.0 0.0 0.0 0.0 0.0
0.0 0.0 0.0 0.0 0.0 0.0 0.0 0.0 0.0 0.0 0.0 0.0 0.0 0.0 0.0 0.0 0.0 0.0 0.0 0.0 0.0 0.0 0.0 0.0 0.0 0.0 0.0 0.0 0.0 0.0 0.0 1.9 0.0 0.0 0.0 0.0 0.0 0.0 0.0 0.0 0.0 0.0 0.0 0.0 0.0
0.0 0.0 0.0 0.0 0.0 0.0 0.0 0.0 0.0 0.0 0.0 0.0 0.0 0.0 0.0 0.0 0.0 0.0 0.0 0.0 0.0 0.0 0.0 0.0 0.0 0.0 0.0 0.0 0.9 0.0 1.9 1.1 0.0 0.0 0.0 0.0 0.0 0.0 0.0 0.0 0.0 0.0 0.0 0.0 0.0
0.0 0.0 0.0 0.0 0.0 0.0 0.0 0.0 0.0 0.0 0.0 0.0 0.0 0.0 0.0 0.0 0.0 0.0 0.0 0.0 0.0 0.0 0.0 0.0 0.0 1.3 0.1 1.4 3.2 3.3 0.2 0.1 0.1 0.0 0.0 0.0 0.0 0.0 0.0 0.0 0.0 0.0 0.0 0.0 0.0
0.0 0.0 0.0 0.0 0.0 0.0 0.0 0.0 0.0 0.0 0.0 0.0 0.0 0.0 0.0 0.0 0.0 0.0 0.0 0.0 0.0 0.0 0.0 0.0 5.7 4.7 0.0 0.1 0.0 0.2 0.0 0.0 0.0 0.0 0.0 0.0 1.3 0.0 0.0 0.0 0.0 0.0 0.0 0.0 0.0
0.0 0.0 0.0 0.0 0.0 0.0 0.0 0.0 0.0 0.0 0.0 0.0 0.0 0.0 0.0 0.0 0.0 0.0 0.0 0.0 0.0 1.7 0.0 0.0 4.0 0.0 0.0 0.0 0.0 0.0 0.2 0.0 0.0 0.0 0.0 0.0 0.0 0.0 0.0 0.0 0.4 0.2 0.2 0.2 0.0
0.0 0.0 0.0 0.0 0.0 0.0 0.0 0.0 0.0 0.0 0.9 0.0 0.0 0.0 0.0 0.0 0.0 0.0 0.0 0.0 0.0 0.3 0.0 0.1 0.0 0.0 0.0 0.0 0.1 0.0 0.0 0.0 0.2 0.0 0.0 0.0 1.6 0.0 0.0 0.0 0.0 0.0 0.0 0.0 0.5
0.0 0.0 0.0 0.0 0.0 0.0 0.0 0.0 0.0 0.0 10.7 6.6 0.0 0.0 0.0 0.0 0.0 0.0 0.0 0.0 0.0 0.5 0.0 0.1 0.0 0.0 0.0 0.0 0.0 0.3 0.0 0.0 0.1 1.6 3.7 0.0 6.3 1.0 0.0 0.0 0.1 0.7 0.7 0.6 1.0
0.0 0.0 0.0 0.0 0.0 0.0 0.0 0.0 0.0 0.0 22.1 0.3 0.0 0.0 0.0 0.0 0.0 0.0 0.0 0.0 0.0 0.0 0.0 1.0 0.0 0.0 0.1 0.1 0.0 0.0 0.0 0.0 0.0 0.5 4.3 0.3 5.3 3.3 0.1 0.7 4.0 4.1 2.3 2.0 2.1
0.0 0.0 0.0 0.0 0.0 0.0 0.0 0.0 0.0 13.3 34.5 12.6 0.0 0.0 0.0 0.0 0.0 0.0 0.0 0.0 0.0 0.0 0.0 0.0 0.0 0.0 0.0 0.0 0.0 0.0 0.0 0.1 0.1 0.8 14.7 0.9 3.2 11.5 8.3 9.1 8.0 4.3 2.4 2.4 2.9
0.0 0.0 0.0 0.0 0.0 0.0 0.0 0.0 14.3 17.2 3.7 9.0 2.4 0.0 0.0 0.0 0.0 0.0 0.0 0.0 1.8 10.2 9.8 2.3 0.0 0.0 0.0 0.0 0.0 0.0 1.2 14.7 16.8 20.5 7.9 1.7 5.8 14.5 8.0 6.9 7.3 5.5 3.9 3.5 2.9
0.0 0.0 0.0 0.0 0.0 0.0 0.0 1.6 12.3 6.1 6.2 0.0 0.0 0.0 0.9 0.0 0.0 0.0 0.6 0.7 0.0 0.6 3.2 5.4 12.2 1.0 0.0 0.0 0.0 0.0 0.1 12.0 22.2 10.7 7.2 2.1 18.5 28.6 9.4 7.0 5.5 4.3 3.5 2.1 2.9
0.0 0.0 0.0 0.0 0.0 0.0 0.0 9.9 8.5 6.5 4.4 0.0 0.0 1.4 1.3 0.0 0.0 0.0 0.9 0.4 0.0 0.0 3.9 1.8 3.4 0.0 0.0 0.0 0.0 0.9 3.2 0.1 11.0 3.8 8.4 4.6 12.5 11.9 5.1 4.9 3.9 3.3 1.5 2.1 1.8
0.0 0.0 0.0 0.0 0.0 0.0 1.9 6.9 3.4 0.2 0.0 0.0 0.9 0.0 0.4 0.1 0.1 0.1 0.0 0.0 0.0 0.2 0.2 1.5 5.6 0.0 0.0 0.0 0.0 0.1 0.2 6.5 12.7 19.4 10.5 7.1 10.3 33.7 20.8 11.1 7.3 7.1 5.5 3.5 2.0
0.0 0.0 0.0 0.0 0.0 0.0 11.7 7.2 0.6 0.0 0.0 0.0 0.0 0.0 0.0 0.0 0.2 0.9 1.1 0.4 0.1 0.2 0.0 0.4 6.0 1.1 0.1 0.3 0.4 1.8 2.8 1.7 4.9 9.1 15.0 8.3 29.5 21.7 16.9 10.2 7.7 7.0 5.7 4.3 2.8
0.0 6.7 0.0 0.0 0.9 5.8 5.4 1.5 0.0 0.0 0.0 0.0 0.0 0.2 0.7 1.0 0.8 0.4 0.4 0.5 0.2 0.0 0.7 0.6 4.8 7.2 0.3 0.0 0.1 1.0 2.3 2.4 12.1 9.9 4.3 9.6 23.9 9.8 9.7 7.2 5.1 4.3 2.5 1.1 0.9
0.0 0.0 0.0 0.0 6.8 3.4 0.2 0.5 0.0 0.0 0.0 0.0 0.2 0.3 0.7 1.1 2.0 0.6 0.0 0.0 0.0 0.0 1.0 2.0 9.9 10.6 4.7 0.3 1.0 4.7 1.8 1.4 4.6 9.2 10.5 9.8 16.5 3.7 2.0 0.9 0.8 0.3 0.5 0.4 0.1
0.0 7.1 0.0 0.0 0.0 0.3 0.8 0.7 0.4 0.2 0.3 0.8 0.9 0.8 0.8 0.3 0.2 1.2 0.1 0.1 0.0 0.1 0.1 0.9 4.1 8.2 9.8 6.2 3.9 6.1 1.1 1.7 6.3 17.8 3.1 4.3 2.7 0.4 0.3 0.1 0.1 0.1 0.2 0.3 0.2
0.0 0.4 0.0 4.7 1.1 0.0 0.1 0.3 0.2 0.4 0.0 0.1 0.3 0.2 1.9 4.7 1.4 0.3 0.3 0.6 0.6 0.2 0.4 1.1 11.8 9.0 2.1 2.3 2.5 3.3 2.4 1.7 5.6 1.8 7.7 2.2 0.8 0.7 0.0 0.1 0.0 0.0 0.0 0.0 0.0
0.2 0.1 0.1 0.2 0.0 0.5 0.2 0.3 0.3 0.2 0.9 0.9 1.2 1.0 2.2 4.0 1.5 4.9 3.7 3.0 2.0 1.2 1.6 1.4 8.0 4.3 2.2 0.7 2.1 5.2 0.7 1.4 0.8 0.1 0.6 0.8 1.4 0.2 0.1 0.0 0.0 0.0 0.0 0.0 0.0
0.0 0.0 0.3 0.4 0.4 0.5 0.4 0.3 0.5 0.2 0.4 0.3 0.6 2.7 2.3 0.4 1.8 1.8 0.8 0.9 1.0 1.8 2.6 4.1 7.1 9.3 8.2 1.1 1.6 5.5 2.5 1.0 1.1 0.0 0.0 1.2 1.1 0.0 0.0 0.0 0.0 0.0 0.1 0.0 0.0